NOAA 16 DEB, 41364

Orbit data source: Space-Track

NOAA 16 DEB, 41364 is space debris in SSO originally from a launch on Thu, 21 Sep 2000 UTC launched from the Air Force Western Test Range (AFWTR). Debris objects in space refer to the collection of defunct objects orbiting the Earth. Examples of debris include non-operational satellites, rocket bodies, and fragments generated from explosions, collisions, or faulty payload assembly.

Loading next visibility...
Identifier
41364, 2000-055JH
Orbit
SSO
Country
Flag of USUS
Related business
Manufacturer
Unknown
Mission
Spacecraft
Bus & Motor
Unknown
Mass
Unknown
Launch date (UTC)
2000-09-21 (26 years ago)
Launch vehicle
Unknown
Launch site
Air Force Western Test Range (AFWTR)
Object type
Payload
Rocket body
Debris
Shape & HBR
Unknown shape, 0.1 m
Radar Cross Section
Small (<0.1 m²)

Expand to show TLE details & history
Last TLE update: 2 days ago

TLE from 2 days ago
0 NOAA 16 DEB
1 41364U 00055JH  26125.09584358  .00003531  00000-0  13676-2 0  9993
2 41364  98.6183 180.3942 0011996 254.2453 105.7407 14.30611422529704
Epoch: 2026-05-05T02:18Z
TLE epoch observation values (Epoch: 2026-05-05T02:18:00.885Z)
Latitude
Longitude
-77.08509°
Altitude
794.962 km
Speed
7.455 km/s
True Right ascension
12h 01m 34s
True Declination
0° 00' 00"
Sunlit
Object was in full shadow at epoch
Visualization orbit readout
Latitude
Unknown
Longitude
Unknown
Altitude
Unknown
Speed
Unknown
Apparent Right ascension
Unknown
Apparent Declination
Unknown
Sunlit
N/A
Visualization observer readout
Local Sidereal Time
02:50:26
Azimuth
Unknown
Elevation
Unknown
Doppler factor
Unknown
Orbital elements
Apogee altitude
795.423 km
Perigee altitude
778.233 km
Semi-major axis
7,164.965 km
Eccentricity
0.0012
Inclination
98.6183°
RAAN
180.3942°
Arg. of periapsis
254.2453°
True anomaly
105.87296°
Mean anomaly
105.7407°
Eccentric anomaly
105.80683°
Mean motion
3.57867 °/min
Orbital period
100.6 mins
BSTAR
0.0013676
Loading maneuver chart data...
Computing Atmospheric mass density...
Loading historical data...
Loading historical data...
Loading historical data...
Loading historical data...
Loading historical data...
Loading historical data...
Loading historical data...

Documentation

Showing up to 5 results
|